Photometre #525[NE_1.6] FORTH_RSLab AOT

File : 20220925_525.hum

25/09/2022,04:53:01,TEMP=17.0,BA=5.32,STAT.A=38.5,ExtBa=12.90
25/09/2022,04:55:21,TEMP=17.4,BA=5.32,STAT.D=38.0,ExtBa=12.78
25/09/2022,04:57:15,TEMP=17.7,BA=5.32,STAT.A=37.5,ExtBa=12.76
25/09/2022,04:59:50,TEMP=17.8,BA=5.32,STAT.A=37.5,ExtBa=12.78
25/09/2022,05:04:12,TEMP=17.9,BA=5.20,STAT.A=38.0,ExtBa=12.82
25/09/2022,05:09:28,TEMP=18.1,BA=5.20,STAT.A=38.0,ExtBa=12.83
25/09/2022,05:15:21,TEMP=18.5,BA=5.20,STAT.D=38.0,ExtBa=12.84
25/09/2022,05:17:14,TEMP=18.9,BA=5.20,STAT.A=37.5,ExtBa=12.78
25/09/2022,05:20:21,TEMP=19.0,BA=5.28,STAT.D=37.5,ExtBa=12.81
25/09/2022,05:24:06,TEMP=19.3,BA=5.28,STAT.B=38.0,ExtBa=12.83
25/09/2022,05:33:25,TEMP=19.9,BA=5.20,STAT.A=37.5,ExtBa=12.80
25/09/2022,05:35:28,TEMP=20.3,BA=5.20,STAT.A=37.5,ExtBa=12.81
25/09/2022,05:37:31,TEMP=20.5,BA=5.20,STAT.A=37.0,ExtBa=12.81
25/09/2022,05:40:21,TEMP=20.6,BA=5.28,STAT.D=37.5,ExtBa=12.82
25/09/2022,05:42:52,TEMP=20.8,BA=5.28,STAT.A=37.5,ExtBa=12.82
25/09/2022,05:45:21,TEMP=21.0,BA=5.28,STAT.D=37.5,ExtBa=12.81
25/09/2022,05:49:16,TEMP=21.2,BA=5.28,STAT.C=38.0,ExtBa=12.84
25/09/2022,06:03:48,TEMP=22.4,BA=5.20,STAT.A=37.5,ExtBa=12.81
25/09/2022,06:05:51,TEMP=22.8,BA=5.20,STAT.A=37.5,ExtBa=12.81
25/09/2022,06:10:21,TEMP=22.9,BA=5.32,STAT.D=38.0,ExtBa=12.84
25/09/2022,06:15:21,TEMP=23.3,BA=5.32,STAT.D=38.0,ExtBa=12.84
25/09/2022,06:17:15,TEMP=23.8,BA=5.32,STAT.A=37.5,ExtBa=12.80
25/09/2022,06:20:21,TEMP=24.1,BA=5.32,STAT.D=37.5,ExtBa=12.81
25/09/2022,06:28:22,TEMP=25.5,BA=5.32,STAT.A=36.5,ExtBa=12.83
25/09/2022,09:23:15,TEMP=32.7,BA=5.40,STAT.s
25/09/2022,09:23:38,TEMP=32.7,BA=5.40,STAT.s
25/09/2022,09:23:58,TEMP=32.7,BA=5.40,STAT.s
25/09/2022,09:24:19,TEMP=32.7,BA=5.40,STAT.s
25/09/2022,09:24:40,TEMP=32.7,BA=5.40,STAT.s
25/09/2022,09:25:11,TEMP=32.7,BA=5.40,STAT.s
25/09/2022,09:26:04,TEMP=32.7,BA=5.40,STAT.s
25/09/2022,09:30:11,TEMP=32.7,BA=5.48,STAT.s
25/09/2022,09:35:11,TEMP=32.7,BA=5.48,STAT.s
25/09/2022,09:40:22,TEMP=29.5,BA=5.52,STAT.D=39.0,ExtBa=13.97
25/09/2022,09:49:40,TEMP=32.0,BA=5.52,STAT.s
25/09/2022,09:50:25,STAT.p
25/09/2022,09:55:23,TEMP=29.2,BA=5.48,STAT.D=38.5,ExtBa=14.05
25/09/2022,10:04:40,TEMP=32.2,BA=5.44,STAT.s
25/09/2022,10:05:23,TEMP=31.8,BA=5.44,STAT.D=34.0,ExtBa=14.07
25/09/2022,10:14:40,TEMP=32.7,BA=5.40,STAT.s
25/09/2022,10:15:11,TEMP=32.7,BA=5.40,STAT.s
25/09/2022,10:20:23,TEMP=29.8,BA=5.52,STAT.D=38.0,ExtBa=14.07
25/09/2022,10:29:42,TEMP=33.0,BA=5.52,STAT.s
25/09/2022,10:30:11,TEMP=33.0,BA=5.48,STAT.s
25/09/2022,10:35:11,TEMP=33.0,BA=5.48,STAT.s
25/09/2022,10:40:11,TEMP=33.0,BA=5.52,STAT.s
25/09/2022,10:41:04,TEMP=33.0,BA=5.52,STAT.s
25/09/2022,10:45:11,TEMP=33.0,BA=5.52,STAT.s
25/09/2022,10:50:11,TEMP=33.0,BA=5.52,STAT.s
25/09/2022,10:55:11,TEMP=33.0,BA=5.52,STAT.s
25/09/2022,10:56:04,TEMP=33.0,BA=5.52,STAT.s
25/09/2022,11:00:23,TEMP=29.0,BA=5.52,STAT.D=39.0,ExtBa=14.13
25/09/2022,11:10:11,TEMP=32.5,BA=5.48,STAT.s
25/09/2022,11:11:04,TEMP=32.5,BA=5.48,STAT.s
25/09/2022,11:15:11,TEMP=32.5,BA=5.48,STAT.s
25/09/2022,11:20:11,TEMP=32.5,BA=5.48,STAT.s
25/09/2022,11:25:11,TEMP=32.5,BA=5.48,STAT.s
25/09/2022,11:26:04,TEMP=32.5,BA=5.48,STAT.s
25/09/2022,11:30:11,TEMP=32.5,BA=5.48,STAT.s
25/09/2022,11:35:11,TEMP=32.5,BA=5.48,STAT.s
25/09/2022,11:40:11,TEMP=32.5,BA=5.48,STAT.s
25/09/2022,11:41:04,TEMP=32.5,BA=5.48,STAT.s
25/09/2022,11:45:11,TEMP=32.5,BA=5.48,STAT.s
25/09/2022,11:50:11,TEMP=32.5,BA=5.48,STAT.s
25/09/2022,11:55:11,TEMP=32.5,BA=5.48,STAT.s
25/09/2022,11:56:04,TEMP=32.5,BA=5.48,STAT.s
25/09/2022,12:00:11,TEMP=32.5,BA=5.48,STAT.s
25/09/2022,12:05:11,TEMP=32.5,BA=5.48,STAT.s
25/09/2022,12:10:11,TEMP=32.5,BA=5.48,STAT.s
25/09/2022,12:11:04,TEMP=32.5,BA=5.48,STAT.s
25/09/2022,12:15:11,TEMP=32.5,BA=5.48,STAT.s
25/09/2022,12:20:11,TEMP=32.5,BA=5.44,STAT.s
25/09/2022,12:25:11,TEMP=32.5,BA=5.44,STAT.s
25/09/2022,12:26:04,TEMP=32.5,BA=5.44,STAT.s
25/09/2022,12:30:11,TEMP=32.5,BA=5.44,STAT.s
25/09/2022,12:35:11,TEMP=32.5,BA=5.44,STAT.s
25/09/2022,12:40:11,TEMP=32.5,BA=5.44,STAT.s
25/09/2022,12:41:04,TEMP=32.5,BA=5.44,STAT.s
25/09/2022,12:45:11,TEMP=32.5,BA=5.44,STAT.s
25/09/2022,12:50:11,TEMP=32.5,BA=5.44,STAT.s
25/09/2022,12:55:11,TEMP=32.5,BA=5.44,STAT.s
25/09/2022,12:56:04,TEMP=32.5,BA=5.44,STAT.s
25/09/2022,13:00:11,TEMP=32.5,BA=5.40,STAT.s
25/09/2022,13:05:11,TEMP=32.5,BA=5.40,STAT.s
25/09/2022,13:10:11,TEMP=32.5,BA=5.44,STAT.s
25/09/2022,13:11:04,TEMP=32.5,BA=5.44,STAT.s
25/09/2022,13:15:11,TEMP=32.5,BA=5.44,STAT.s
25/09/2022,13:20:11,TEMP=32.5,BA=5.44,STAT.s
25/09/2022,13:25:11,TEMP=32.5,BA=5.44,STAT.s
25/09/2022,13:26:04,TEMP=32.5,BA=5.44,STAT.s
25/09/2022,13:30:11,TEMP=32.5,BA=5.44,STAT.s
25/09/2022,13:35:11,TEMP=32.5,BA=5.44,STAT.s
25/09/2022,13:38:06,TEMP=32.5,BA=5.44,STAT.s
25/09/2022,13:40:11,TEMP=32.5,BA=5.40,STAT.s
25/09/2022,13:45:11,TEMP=32.5,BA=5.40,STAT.s
25/09/2022,13:50:11,TEMP=32.5,BA=5.40,STAT.s
25/09/2022,13:53:57,TEMP=32.5,BA=5.40,STAT.s
25/09/2022,13:55:11,TEMP=32.5,BA=5.40,STAT.s
25/09/2022,14:00:11,TEMP=32.5,BA=5.40,STAT.s
25/09/2022,14:05:11,TEMP=32.5,BA=5.40,STAT.s
25/09/2022,14:06:36,TEMP=32.5,BA=5.40,STAT.s
25/09/2022,14:10:11,TEMP=32.5,BA=5.40,STAT.s
25/09/2022,14:15:11,TEMP=32.5,BA=5.40,STAT.s
25/09/2022,14:16:58,TEMP=32.5,BA=5.40,STAT.s
25/09/2022,14:20:11,TEMP=32.5,BA=5.40,STAT.s
25/09/2022,14:25:11,TEMP=32.5,BA=5.40,STAT.s
25/09/2022,14:25:40,TEMP=32.5,BA=5.40,STAT.s
25/09/2022,14:30:11,TEMP=32.5,BA=5.40,STAT.s
25/09/2022,14:33:04,TEMP=32.5,BA=5.40,STAT.s
25/09/2022,14:35:11,TEMP=32.5,BA=5.40,STAT.s
25/09/2022,14:39:28,TEMP=32.5,BA=5.40,STAT.s
25/09/2022,14:40:11,TEMP=32.5,BA=5.36,STAT.s
25/09/2022,14:45:02,TEMP=32.5,BA=5.36,STAT.s
25/09/2022,14:49:57,TEMP=32.5,BA=5.36,STAT.s
25/09/2022,14:54:31,TEMP=27.1,BA=5.36,STAT.A=38.5,ExtBa=13.93
25/09/2022,15:03:55,TEMP=29.7,BA=5.36,STAT.s
25/09/2022,15:05:11,TEMP=29.7,BA=5.36,STAT.s
25/09/2022,15:06:23,TEMP=29.7,BA=5.36,STAT.s
25/09/2022,15:22:34,TEMP=28.0,BA=5.36,STAT.s
25/09/2022,15:22:56,TEMP=28.0,BA=5.36,STAT.s
25/09/2022,15:25:11,TEMP=28.0,BA=5.36,STAT.s
25/09/2022,15:26:09,TEMP=28.0,BA=5.36,STAT.s
25/09/2022,15:29:18,TEMP=28.0,BA=5.36,STAT.s